Location: Schommer Observatory
(40.5200°N, 74.4500°W)
Time: 16:43:24
(UTC-04:00)

Amateur Radio Satellites - All Passes

Search period start: 22 June 2017 16:13
Search period end: 23 June 2017 16:13
Location: Schommer Observatory, 40.5200°N, 74.4500°W

Satellite Date Start Highest point End Downlink Frequencies (MHz)
Time Altitude Azimuth
BEESAT 22 Jun 16:22:17 16:27:04 72° 286° (WNW) 16:31:48 436.000
MOZHAYETS 4 22 Jun 16:24:31 16:29:08 81° 101° (ESE) 16:33:42
Tancredo 1 22 Jun 16:36:10 16:39:05 44° 222° (SW) 16:41:59 437.200
KKS-1 22 Jun 16:48:25 16:51:21 17° 93° (E) 16:54:16 437.445
DOVE 4 22 Jun 16:54:15 16:57:16 20° 67° (ENE) 17:00:20 437.250
CUBESAT XI-V 22 Jun 16:56:15 17:00:21 31° 96° (E) 17:04:24 437.345
AO-7 22 Jun 17:27:26 17:32:51 19° 269° (W) 17:38:19 .
STARS 22 Jun 17:27:56 17:31:07 19° 94° (E) 17:34:17 437.465
HO-68 22 Jun 17:31:40 17:35:08 14° 52° (NE) 17:38:35 435.675
NUDT-PHONESAT 22 Jun 17:46:31 17:49:37 24° 70° (ENE) 17:52:43 437.300
ITUPSAT 1 22 Jun 17:50:11 17:51:44 11° 300° (WNW) 17:53:17 437.325
ISS 22 Jun 17:50:14 17:52:34 18° 228° (SW) 17:54:53 437.550
XW-2F 22 Jun 17:50:30 17:54:00 35° 72° (ENE) 17:57:30 145.980 - 146.000
XW-2D 22 Jun 17:51:51 17:55:28 39° 72° (ENE) 17:59:03 145.860 - 145.880
LilacSat-2 22 Jun 17:55:39 17:59:22 45° 74° (ENE) 18:03:05 437.200
XW-2B 22 Jun 18:00:37 18:04:19 48° 74° (ENE) 18:08:03 145.730 - 145.750
MOZHAYETS 4 22 Jun 18:04:28 18:05:36 11° 299° (WNW) 18:06:43
CUTE-I 22 Jun 18:04:33 18:09:42 55° 72° (ENE) 18:14:55 437.470
XW-2C 22 Jun 18:15:45 18:19:36 79° 76° (ENE) 18:23:27 145.795 - 145.815
KKS-1 22 Jun 18:23:50 18:28:05 44° 289° (WNW) 18:32:20 437.445
DOVE 4 22 Jun 18:31:04 18:34:46 32° 264° (W) 18:38:33 437.250
CUBESAT XI-V 22 Jun 18:33:50 18:37:34 25° 292° (WNW) 18:41:18 437.345
KAITUO 1B 22 Jun 18:38:45 18:42:31 69° 259° (WSW) 18:46:19 145.475/437.950
CUBEBUG 2 22 Jun 18:45:29 18:48:01 15° 63° (ENE) 18:50:36 437.445
SEEDS 22 Jun 18:58:27 19:01:43 22° 68° (ENE) 19:04:59 437.485
STARS 22 Jun 19:03:28 19:07:35 38° 289° (WNW) 19:11:40 437.465
CUTE 1.7 + AOD 2 22 Jun 19:08:18 19:12:21 45° 73° (ENE) 19:16:24 437.475
HO-68 22 Jun 19:14:27 19:21:35 72° 71° (ENE) 19:28:47 435.675
NUDT-PHONESAT 22 Jun 19:20:32 19:23:26 21° 265° (W) 19:26:22 437.300
STRAND 1 22 Jun 19:22:18 19:25:51 18° 92° (E) 19:29:22 437.568
UWE-3 22 Jun 19:25:16 19:28:50 23° 67° (ENE) 19:32:28 435.000/436.395/437.385
XW-2F 22 Jun 19:25:55 19:28:14 15° 267° (W) 19:30:34 145.980 - 146.000
XW-2D 22 Jun 19:27:46 19:29:48 14° 268° (W) 19:31:49 145.860 - 145.880
ZACube-1 22 Jun 19:29:16 19:31:45 15° 63° (ENE) 19:34:14 437.345
XW-2A 22 Jun 19:29:56 19:33:19 58° 75° (ENE) 19:36:44 145.665 - 145.685
LilacSat-2 22 Jun 19:32:16 19:33:52 12° 269° (W) 19:35:28 437.200
XW-2B 22 Jun 19:37:35 19:38:46 11° 269° (W) 19:39:57 145.730 - 145.750
CUTE-I 22 Jun 19:46:26 19:50:04 18° 268° (W) 19:53:43 437.470
AAUSAT CUBESAT 2 22 Jun 19:58:55 20:02:53 48° 74° (ENE) 20:06:52 437.432
CUBEBUG 2 22 Jun 20:19:38 20:24:05 59° 260° (W) 20:28:43 437.445
AO-73 22 Jun 20:30:05 20:34:30 55° 73° (ENE) 20:38:59 145.935
SEEDS 22 Jun 20:33:32 20:37:13 30° 264° (W) 20:40:56 437.485
RS-15 22 Jun 20:42:38 20:53:18 39° 106° (ESE) 21:04:09 29.354- 29.394
CUTE 1.7 + AOD 2 22 Jun 20:45:57 20:48:23 15° 268° (W) 20:50:51 437.475
STRAND 1 22 Jun 21:00:18 21:05:18 52° 289° (WNW) 21:10:16 437.568
UWE-3 22 Jun 21:00:53 21:05:02 35° 264° (W) 21:09:19 435.000/436.395/437.385
Oscar 11 22 Jun 21:01:32 21:05:52 86° 253° (WSW) 21:10:15 .
ZACube-1 22 Jun 21:03:03 21:07:30 58° 260° (W) 21:12:02 437.345
HO-68 22 Jun 21:04:45 21:09:54 21° 268° (W) 21:15:05 435.675
O/OREOS (USA 219) 22 Jun 21:15:26 21:17:05 12° 98° (E) 21:18:45 437.305
AAUSAT CUBESAT 2 22 Jun 21:36:40 21:38:36 13° 269° (W) 21:40:33 437.432
UNISAT 6 22 Jun 21:39:05 21:39:45 10° 88° (E) 21:40:25 437.425
AO-85 22 Jun 21:43:26 21:47:32 84° 121° (ESE) 21:51:29 145.980
PCSat 22 Jun 21:44:33 21:49:43 42° 55° (NE) 21:54:51 145.827
PRISM 22 Jun 21:49:16 21:50:48 12° 91° (E) 21:52:19 437.425
M-CUBED/EXP-1 PRIME 22 Jun 21:50:45 21:53:32 20° 101° (ESE) 21:56:26 437.505
DELFI C3 22 Jun 21:55:46 21:59:41 79° 256° (WSW) 22:03:37 145.870
YUBILEINY 22 Jun 21:57:31 22:05:36 43° 87° (E) 22:13:44 435.215
BEESAT 3 22 Jun 22:04:50 22:08:47 76° 120° (ESE) 22:12:49 437.485
AO-73 22 Jun 22:08:42 22:11:03 14° 270° (W) 22:13:26 145.935
EO-88 22 Jun 22:09:19 22:12:59 79° 259° (W) 22:16:41 145.990 - 145.960
FO-29 22 Jun 22:28:29 22:36:11 58° 100° (E) 22:43:50 435.910
TIGRISAT 22 Jun 22:31:23 22:35:43 36° 97° (E) 22:39:57 435.000
LO-87 22 Jun 22:43:18 22:46:26 30° 72° (ENE) 22:49:36 145.935 - 145.965
NO-84 22 Jun 22:47:29 22:51:18 51° 132° (SE) 22:55:25 435.350 FM
ESTCUBE 1 22 Jun 22:50:58 22:54:45 27° 68° (ENE) 22:58:32 437.505/2401.250
O/OREOS (USA 219) 22 Jun 22:51:23 22:55:54 64° 294° (WNW) 23:00:25 437.305
RS-15 22 Jun 22:53:00 23:05:06 67° 308° (NW) 23:17:28 29.354- 29.394
BEESAT 2 22 Jun 22:56:13 23:00:12 86° 307° (NW) 23:04:16 435.950
SO-50 22 Jun 22:59:41 23:02:53 19° 43° (NE) 23:06:05 436.795
VELOX 1 22 Jun 23:10:19 23:10:48 10° 61° (ENE) 23:11:19 145.980
UNISAT 6 22 Jun 23:12:18 23:16:59 76° 285° (WNW) 23:21:34 437.425
PRISM 22 Jun 23:22:23 23:26:22 53° 287° (WNW) 23:30:21 437.425
M-CUBED/EXP-1 PRIME 22 Jun 23:24:49 23:27:57 28° 294° (WNW) 23:31:16 437.505
AO-85 22 Jun 23:27:02 23:28:25 11° 319° (NW) 23:29:49 145.980
PCSat 22 Jun 23:28:23 23:32:53 27° 252° (WSW) 23:37:21 145.827
EO-79 22 Jun 23:41:37 23:43:32 13° 91° (E) 23:45:26 145.935-145.965
BEESAT 3 22 Jun 23:44:56 23:46:52 13° 319° (NW) 23:48:49 437.485
SPROUT 22 Jun 23:52:04 23:55:46 30° 70° (ENE) 23:59:31 437.525
AIST 2D 22 Jun 23:52:54 23:56:08 35° 98° (E) 23:59:21 435.315
YUBILEINY 22 Jun 23:54:13 00:02:22 41° 287° (WNW) 00:10:38 435.215
DUCHIFAT 1 22 Jun 23:58:52 00:01:32 16° 92° (E) 00:04:11 145.980
NANOSAT C BR1 23 Jun 00:05:06 00:08:23 21° 94° (E) 00:11:39 145.865
TIGRISAT 23 Jun 00:08:30 00:12:08 23° 294° (WNW) 00:15:44 435.000
FO-29 23 Jun 00:14:06 00:20:43 32° 297° (WNW) 00:27:25 435.910
LO-87 23 Jun 00:17:51 00:19:56 15° 267° (W) 00:22:02 145.935 - 145.965
NO-84 23 Jun 00:25:32 00:29:07 28° 331° (NNW) 00:32:52 435.350 FM
ESTCUBE 1 23 Jun 00:27:35 00:31:27 28° 264° (W) 00:35:20 437.505/2401.250
50 SAT 23 Jun 00:30:16 00:33:14 29° 72° (ENE) 00:36:13 437.505
BEESAT 2 23 Jun 00:37:21 00:38:36 11° 321° (NW) 00:39:52 435.950
POLYITAN 1 23 Jun 00:39:03 00:43:17 58° 100° (E) 00:47:29 437.675
SO-50 23 Jun 00:39:14 00:43:42 60° 241° (WSW) 00:48:11 436.795
VELOX 1 23 Jun 00:42:13 00:46:35 80° 257° (WSW) 00:50:59 145.980
QB50P2 23 Jun 00:49:38 00:53:57 85° 106° (ESE) 00:58:12 145.880/145.840
RS-15 23 Jun 01:10:39 01:20:38 27° 337° (NNW) 01:30:36 29.354- 29.394
DX 1 23 Jun 01:12:02 01:16:19 72° 75° (ENE) 01:20:39 434.975-435.025
EO-79 23 Jun 01:15:25 01:19:36 53° 287° (WNW) 01:23:44 145.935-145.965
BUGSAT 1 23 Jun 01:20:34 01:24:35 39° 98° (E) 01:28:33 437.445
AIST 2D 23 Jun 01:27:18 01:29:00 13° 293° (WNW) 01:30:42 435.315
SPROUT 23 Jun 01:28:18 01:31:40 23° 265° (W) 01:35:04 437.525
DUCHIFAT 1 23 Jun 01:33:22 01:37:23 41° 288° (WNW) 01:41:22 145.980
UKube-1 23 Jun 01:35:36 01:39:54 89° 64° (ENE) 01:44:13 .
NANOSAT C BR1 23 Jun 01:40:20 01:44:07 31° 290° (WNW) 01:47:53 145.865
ITUPSAT 1 23 Jun 01:42:24 01:43:33 11° 59° (ENE) 01:44:43 437.325
Oscar 19 23 Jun 01:50:33 01:55:05 31° 96° (E) 01:59:35 437.125/150
BEESAT 23 Jun 01:53:00 01:55:31 14° 62° (ENE) 01:58:03 436.000
50 SAT 23 Jun 02:04:19 02:06:06 14° 267° (W) 02:07:54 437.505
NO-84 23 Jun 02:05:59 02:07:56 13° 351° (N) 02:09:55 435.350 FM
POLYITAN 1 23 Jun 02:16:34 02:18:34 13° 297° (WNW) 02:20:32 437.675
Gurwin Techsat 1B 23 Jun 02:19:03 02:23:58 36° 97° (E) 02:28:50 435.225
BUGSAT 1 23 Jun 02:56:43 02:59:36 18° 294° (WNW) 03:02:30 437.445
ITUPSAT 1 23 Jun 03:15:49 03:20:37 89° 263° (W) 03:25:28 437.325
MOZHAYETS 4 23 Jun 03:25:29 03:30:07 73° 75° (ENE) 03:34:46
BEESAT 23 Jun 03:27:58 03:32:43 66° 258° (WSW) 03:37:31 436.000
RS-15 23 Jun 03:29:47 03:39:01 23° 13° (NNE) 03:48:03 29.354- 29.394
Oscar 19 23 Jun 03:29:53 03:34:19 31° 293° (WNW) 03:38:45 437.125/150
AO-7 23 Jun 03:33:36 03:40:41 29° 96° (E) 03:47:42 .
NO-84 23 Jun 03:44:46 03:47:07 14° 13° (NNE) 03:49:28 435.350 FM
KKS-1 23 Jun 03:46:33 03:49:14 16° 64° (ENE) 03:51:55 437.445
CUBESAT XI-V 23 Jun 03:59:04 04:03:06 30° 69° (ENE) 04:07:08 437.345
Gurwin Techsat 1B 23 Jun 03:59:15 04:03:44 28° 294° (WNW) 04:08:13 435.225
ITAMSAT 1 23 Jun 04:00:15 04:05:12 41° 99° (E) 04:10:07 435.822/435.867
STARS 23 Jun 04:24:35 04:27:25 17° 64° (ENE) 04:30:14 437.465
MOZHAYETS 4 23 Jun 05:06:39 05:07:45 11° 271° (W) 05:08:51
KKS-1 23 Jun 05:21:05 05:25:21 49° 260° (W) 05:29:41 437.445
NO-84 23 Jun 05:21:43 05:25:47 36° 33° (NNE) 05:29:45 435.350 FM
AO-7 23 Jun 05:25:38 05:33:52 62° 294° (WNW) 05:42:02 .
CUBESAT XI-V 23 Jun 05:36:32 05:40:26 26° 265° (W) 05:44:20 437.345
ITAMSAT 1 23 Jun 05:40:13 05:44:25 25° 295° (WNW) 05:48:35 435.822/435.867
RS-15 23 Jun 05:43:47 05:55:35 50° 45° (NE) 06:06:47 29.354- 29.394
STARS 23 Jun 05:59:12 06:03:22 45° 261° (W) 06:07:36 437.465
KAITUO 1B 23 Jun 06:12:21 06:13:34 11° 91° (E) 06:14:47 145.475/437.950
AO-85 23 Jun 06:14:20 06:18:24 60° 55° (NE) 06:22:44 145.980
BEESAT 3 23 Jun 06:22:02 06:25:48 37° 52° (NE) 06:29:31 437.485
CUTE-I 23 Jun 06:22:34 06:26:44 22° 94° (E) 06:30:52 437.470
DOVE 4 23 Jun 06:28:27 06:33:16 64° 101° (E) 06:38:20 437.250
STRAND 1 23 Jun 06:37:35 06:41:48 26° 66° (ENE) 06:46:02 437.568
HO-68 23 Jun 06:45:52 06:48:30 12° 87° (E) 06:51:10 435.675
NUDT-PHONESAT 23 Jun 06:50:26 06:53:50 34° 97° (E) 06:57:12 437.300
XW-2F 23 Jun 06:56:38 07:00:19 53° 100° (E) 07:03:58 145.980 - 146.000
XW-2D 23 Jun 06:58:30 07:02:15 62° 100° (E) 07:05:57 145.860 - 145.880
NO-84 23 Jun 06:59:24 07:03:25 36° 231° (SW) 07:07:13 435.350 FM
LilacSat-2 23 Jun 07:03:10 07:06:59 74° 102° (ESE) 07:10:43 437.200
XW-2B 23 Jun 07:07:23 07:11:11 78° 102° (ESE) 07:14:56 145.730 - 145.750
BEESAT 2 23 Jun 07:14:13 07:18:10 47° 54° (NE) 07:22:04 435.950
AO-7 23 Jun 07:21:00 07:24:56 14° 314° (NW) 07:28:53 .
XW-2C 23 Jun 07:22:46 07:26:31 64° 284° (WNW) 07:30:13 145.795 - 145.815
O/OREOS (USA 219) 23 Jun 07:23:08 07:26:42 23° 58° (ENE) 07:30:15 437.305
KAITUO 1B 23 Jun 07:44:16 07:47:48 43° 287° (WNW) 07:51:19 145.475/437.950
AO-85 23 Jun 07:56:28 07:58:24 13° 250° (WSW) 08:00:22 145.980
RS-15 23 Jun 07:56:42 08:08:15 55° 249° (WSW) 08:19:14 29.354- 29.394
BEESAT 3 23 Jun 08:00:18 08:03:06 19° 249° (WSW) 08:05:52 437.485
CUTE-I 23 Jun 08:01:51 08:06:58 46° 290° (WNW) 08:12:04 437.470
DOVE 4 23 Jun 08:07:42 08:10:29 15° 295° (WNW) 08:13:21 437.250
YUBILEINY 23 Jun 08:08:40 08:14:56 21° 63° (ENE) 08:21:08 435.215
CUBEBUG 2 23 Jun 08:11:01 08:15:14 31° 95° (E) 08:19:21 437.445
STRAND 1 23 Jun 08:16:02 08:20:46 37° 262° (W) 08:25:33 437.568
SEEDS 23 Jun 08:17:01 08:21:00 43° 99° (E) 08:24:57 437.485
AO-73 23 Jun 08:21:08 08:22:16 11° 89° (E) 08:23:24 145.935
XW-2A 23 Jun 08:24:37 08:28:02 66° 101° (E) 08:31:23 145.665 - 145.685
NUDT-PHONESAT 23 Jun 08:25:14 08:27:26 15° 293° (WNW) 08:29:38 437.300
CUTE 1.7 + AOD 2 23 Jun 08:28:53 08:33:06 84° 284° (WNW) 08:37:17 437.475
HO-68 23 Jun 08:30:04 08:37:17 78° 105° (ESE) 08:44:27 435.675
XW-2F 23 Jun 08:33:05 08:33:57 11° 296° (WNW) 08:34:50 145.980 - 146.000
M-CUBED/EXP-1 PRIME 23 Jun 08:37:00 08:39:32 20° 64° (ENE) 08:42:01 437.505
FO-29 23 Jun 08:41:53 08:46:27 23° 59° (ENE) 08:51:25 435.910
Oscar 11 23 Jun 08:50:05 08:53:01 18° 93° (E) 08:55:56 .
UWE-3 23 Jun 08:50:28 08:54:58 49° 99° (E) 08:59:19 435.000/436.395/437.385
ZACube-1 23 Jun 08:52:10 08:56:01 28° 95° (E) 08:59:47 437.345
BEESAT 2 23 Jun 08:53:11 08:55:31 15° 250° (WSW) 08:57:50 435.950
ISS 23 Jun 08:53:36 08:55:53 18° 132° (SE) 08:58:10 437.550
O/OREOS (USA 219) 23 Jun 09:02:07 09:06:10 34° 255° (WSW) 09:10:11 437.305
Tancredo 1 23 Jun 09:06:17 09:09:11 48° 139° (SE) 09:12:09 437.200
AAUSAT CUBESAT 2 23 Jun 09:16:20 09:20:28 83° 283° (WNW) 09:24:34 437.432
TIGRISAT 23 Jun 09:29:26 09:33:25 30° 69° (ENE) 09:37:30 435.000
DELFI C3 23 Jun 09:34:38 09:36:29 13° 92° (E) 09:38:20 145.870
CUBEBUG 2 23 Jun 09:47:46 09:51:41 26° 292° (WNW) 09:55:33 437.445
SEEDS 23 Jun 09:53:49 09:56:19 16° 294° (WNW) 09:58:49 437.485
AO-73 23 Jun 09:54:31 09:58:58 66° 285° (WNW) 10:03:17 145.935
YUBILEINY 23 Jun 10:03:59 10:12:52 84° 264° (W) 10:21:39 435.215
UNISAT 6 23 Jun 10:10:02 10:14:36 88° 82° (E) 10:19:17 437.425
PRISM 23 Jun 10:10:41 10:14:44 82° 257° (WSW) 10:18:49 437.425
M-CUBED/EXP-1 PRIME 23 Jun 10:11:27 10:13:57 19° 259° (W) 10:16:23 437.505
HO-68 23 Jun 10:19:08 10:24:13 21° 303° (WNW) 10:29:17 435.675
FO-29 23 Jun 10:25:01 10:30:49 61° 260° (W) 10:37:26 435.910
Oscar 11 23 Jun 10:25:17 10:29:18 38° 288° (WNW) 10:33:16 .
UWE-3 23 Jun 10:28:01 10:30:59 17° 296° (WNW) 10:33:53 435.000/436.395/437.385
AIST 2D 23 Jun 10:28:06 10:29:52 13° 67° (ENE) 10:31:38 435.315
ZACube-1 23 Jun 10:28:27 10:32:12 26° 292° (WNW) 10:35:52 437.345
ISS 23 Jun 10:28:54 10:32:07 50° 328° (NNW) 10:35:20 437.550
Tancredo 1 23 Jun 10:42:29 10:44:57 22° 336° (NNW) 10:47:26 437.200
DUCHIFAT 1 23 Jun 10:51:23 10:53:04 12° 63° (ENE) 10:54:45 145.980
NANOSAT C BR1 23 Jun 10:57:23 10:59:59 16° 65° (ENE) 11:02:34 145.865
TIGRISAT 23 Jun 11:06:15 11:10:04 26° 265° (W) 11:13:58 435.000
DELFI C3 23 Jun 11:07:44 11:11:28 44° 287° (WNW) 11:15:13 145.870
EO-88 23 Jun 11:11:59 11:15:34 54° 285° (WNW) 11:19:07 145.990 - 145.960
POLYITAN 1 23 Jun 11:30:54 11:34:53 40° 72° (ENE) 11:38:54 437.675
QB50P2 23 Jun 11:41:21 11:45:31 58° 74° (ENE) 11:49:44 145.880/145.840
LO-87 23 Jun 11:43:24 11:46:51 40° 99° (E) 11:50:17 145.935 - 145.965
AIST 2D 23 Jun 11:59:27 12:02:44 36° 262° (W) 12:06:03 435.315
YUBILEINY 23 Jun 12:03:29 12:08:12 16° 284° (WNW) 12:12:56 435.215
EO-79 23 Jun 12:06:45 12:10:59 79° 257° (WSW) 12:15:17 145.935-145.965
ISS 23 Jun 12:07:12 12:09:12 15° 347° (NNW) 12:11:12 437.550
BUGSAT 1 23 Jun 12:09:58 12:13:23 26° 69° (ENE) 12:16:51 437.445
ESTCUBE 1 23 Jun 12:19:29 12:23:55 61° 101° (E) 12:28:21 437.505/2401.250
Tancredo 1 23 Jun 12:20:38 12:21:26 11° 356° (N) 12:22:13 437.200
DUCHIFAT 1 23 Jun 12:24:01 12:28:10 61° 258° (WSW) 12:32:24 145.980
PCSat 23 Jun 12:25:45 12:30:47 41° 112° (ESE) 12:35:52 145.827
NANOSAT C BR1 23 Jun 12:31:15 12:35:18 45° 261° (W) 12:39:24 145.865
VELOX 1 23 Jun 12:33:16 12:36:29 20° 94° (E) 12:39:43 145.980
DX 1 23 Jun 13:02:20 13:04:14 13° 91° (E) 13:06:10 434.975-435.025
Oscar 19 23 Jun 13:06:49 13:11:42 44° 70° (ENE) 13:16:34 437.125/150
POLYITAN 1 23 Jun 13:08:04 13:10:49 17° 267° (W) 13:13:37 437.675
SPROUT 23 Jun 13:13:05 13:17:22 60° 101° (E) 13:21:36 437.525
LO-87 23 Jun 13:18:13 13:19:55 13° 294° (WNW) 13:21:36 145.935 - 145.965
QB50P2 23 Jun 13:20:11 13:21:40 12° 270° (W) 13:23:09 145.880/145.840
UKube-1 23 Jun 13:24:16 13:26:44 15° 92° (E) 13:29:12 .
50 SAT 23 Jun 13:25:23 13:28:27 31° 98° (E) 13:31:31 437.505
Gurwin Techsat 1B 23 Jun 13:39:36 13:44:46 56° 72° (ENE) 13:49:59 435.225
ISS 23 Jun 13:45:09 13:46:45 13° 7° (N) 13:48:21 437.550
BUGSAT 1 23 Jun 13:45:16 13:48:40 25° 265° (W) 13:52:07 437.445
Tancredo 1 23 Jun 13:56:12 13:58:03 15° 16° (NNE) 13:59:54 437.200
ESTCUBE 1 23 Jun 13:58:01 14:00:12 14° 297° (WNW) 14:02:23 437.505/2401.250
VELOX 1 23 Jun 14:08:58 14:13:02 37° 290° (WNW) 14:17:07 145.980
PCSat 23 Jun 14:09:33 14:14:17 30° 310° (NW) 14:19:03 145.827
AO-7 23 Jun 14:32:04 14:39:38 41° 61° (ENE) 14:47:14 .
DX 1 23 Jun 14:36:28 14:40:45 56° 287° (WNW) 14:45:01 434.975-435.025
Oscar 19 23 Jun 14:47:17 14:51:11 22° 266° (W) 14:55:05 437.125/150
SPROUT 23 Jun 14:50:50 14:52:44 13° 297° (WNW) 14:54:38 437.525
SO-50 23 Jun 14:52:49 14:57:11 47° 117° (ESE) 15:01:31 436.795
UKube-1 23 Jun 14:58:51 15:03:00 47° 288° (WNW) 15:07:08 .
50 SAT 23 Jun 14:59:09 15:00:58 14° 293° (WNW) 15:02:47 437.505
ITUPSAT 1 23 Jun 15:17:16 15:21:09 24° 95° (E) 15:24:58 437.325
ITAMSAT 1 23 Jun 15:17:40 15:22:46 61° 72° (ENE) 15:27:56 435.822/435.867
ISS 23 Jun 15:21:04 15:24:03 30° 27° (NNE) 15:27:01 437.550
Gurwin Techsat 1B 23 Jun 15:21:33 15:25:03 18° 268° (W) 15:28:35 435.225
MOZHAYETS 4 23 Jun 15:22:00 15:25:02 17° 92° (E) 15:28:01
BEESAT 23 Jun 15:28:39 15:32:56 32° 97° (E) 15:37:10 436.000
Tancredo 1 23 Jun 15:31:05 15:34:07 64° 35° (NE) 15:37:08 437.200
